Location: Brompton
(51.4000°N, 0.5333°E)
Time: 01:48:50
(UTC+00:00)

Cosmos 1777 Rocket - Pass Details

Date: 11 May 2021
Orbit: 758 x 776 km, 74.0° (Epoch: 13 June)

Event Time Altitude Azimuth Distance (km) Brightness Sun altitude
Rises 20:45:04 0° 186° (S) 3,205 6.8 -9.2°
Reaches altitude 10° 20:47:28 10° 181° (S) 2,283 6.1 -9.4°
Maximum altitude 20:52:27 50° 107° (ESE) 960 4.2 -10.0°
Drops below altitude 10° 20:57:29 10° 33° (NNE) 2,301 6.7 -10.5°
Sets 20:59:55 0° 29° (NNE) 3,232 7.5 -10.8°
